Weather History for Marathon, FL

Change the Weather History Date:

Friday, August 16, 2013

  Actual Average Record
Temperature  
Mean Temperature 89 °F 85 °F  
Max Temperature 93 °F 91 °F 96 °F (1997)
Min Temperature 84 °F 80 °F 72 °F (2003)
Degree Days  
Heating Degree Days 0 0  
Month to date heating degree days 0 0  
Since 1 June heating degree days 0 0  
Since 1 July heating degree days 0 0  
Cooling Degree Days 24 20  
Month to date cooling degree days 353 332  
Year to date cooling degree days 3423 3089  
Since 1 June cooling degree days 1593 1546  
Growing Degree Days 38 (Base 50)    
Moisture  
Dew Point 77 °F    
Average Humidity 69    
Maximum Humidity 75    
Minimum Humidity 62    
Precipitation  
Precipitation T in 0.20 in 1.96 in (2003)
Month to date precipitation 0.52 3.28  
Year to date precipitation 37.57 25.11  
Snow  
Snow 0.00 in - - ()
Month to date snowfall 0.0  
Since 1 June snowfall 0.0  
Since 1 July snowfall 0.0  
Snow Depth 0.00 in    
Sea Level Pressure  
Sea Level Pressure 30.01 in    
Wind  
Wind Speed 7 mph (ESE)    
Max Wind Speed 14 mph    
Max Gust Speed 21 mph    
Visibility 10 miles    
Events      
T = Trace of Precipitation, MM = Missing Value Source: NWS Daily Summary

Daily Weather History Graph

Daily Weather History Graph

Search for Another Location

Airport:

Trip Planner

Search our weather history database for the weather conditions in past years. The results will help you decide how hot, cold, wet, or windy it might be!

Date:

Astronomy

Aug. 16, 2013 Rise Set
Actual Time 6:59 AM EDT 7:57 PM EDT
Civil Twilight 6:35 AM EDT 8:21 PM EDT
Nautical Twilight 6:07 AM EDT 8:49 PM EDT
Astronomical Twilight 5:38 AM EDT 9:17 PM EDT
Moon 4:02 PM EDT (8/16) 2:12 AM EDT (8/16)
Length of Visible Light 13h 45m
Length of Day
12h 58m
Waxing Gibbous, 74% of the Moon is Illuminated
Aug 16
Waxing Gibbous
Aug 20
Full
Aug 28
Last Quarter
Sep 5
New
Sep 12
First Quarter

Hourly Weather History & Observations

Time (EDT) Temp. Heat Index Dew Point Humidity Pressure Visibility Wind Dir Wind Speed Gust Speed Precip Events Conditions
1:53 AM 84.9 °F 93.3 °F 75.0 °F 72% 30.00 in 10.0 mi ENE 6.9 mph - N/A   Partly Cloudy
2:53 AM 84.9 °F 94.1 °F 75.9 °F 74% 30.00 in 10.0 mi East 3.5 mph - N/A   Partly Cloudy
3:53 AM 84.9 °F 93.3 °F 75.0 °F 72% 30.00 in 10.0 mi ESE 3.5 mph - N/A   Mostly Cloudy
4:53 AM 84.9 °F 93.3 °F 75.0 °F 72% 30.00 in 10.0 mi Variable 4.6 mph - N/A   Clear
5:53 AM 84.9 °F 93.3 °F 75.0 °F 72% 30.00 in 10.0 mi East 4.6 mph - N/A   Partly Cloudy
6:53 AM 84.9 °F 93.3 °F 75.0 °F 72% 30.01 in 10.0 mi East 5.8 mph - N/A   Clear
7:53 AM 86.0 °F 96.0 °F 75.9 °F 72% 30.02 in 10.0 mi East 5.8 mph - N/A   Partly Cloudy
8:53 AM 87.1 °F 97.3 °F 75.9 °F 69% 30.03 in 10.0 mi East 8.1 mph - N/A   Partly Cloudy
9:53 AM 87.1 °F 97.3 °F 75.9 °F 69% 30.03 in 10.0 mi East 9.2 mph - N/A   Clear
10:53 AM 90.0 °F 102.5 °F 77.0 °F 65% 30.04 in 10.0 mi East 8.1 mph - N/A   Clear
11:53 AM 90.0 °F 102.5 °F 77.0 °F 65% 30.04 in 10.0 mi East 9.2 mph - N/A   Partly Cloudy
12:53 PM 91.0 °F 106.2 °F 78.1 °F 66% 30.03 in 10.0 mi ESE 6.9 mph - N/A   Clear
1:53 PM 93.0 °F 108.9 °F 78.1 °F 62% 30.01 in 10.0 mi ESE 8.1 mph - 0.00 in   Scattered Clouds
2:53 PM 91.0 °F 104.2 °F 77.0 °F 63% 29.99 in 10.0 mi East 9.2 mph - N/A   Scattered Clouds
3:53 PM 91.9 °F 105.9 °F 77.0 °F 62% 29.97 in 10.0 mi ESE 8.1 mph 18.4 mph N/A   Partly Cloudy
4:48 PM 91.4 °F 107.2 °F 78.8 °F 66% 29.97 in 10.0 mi ESE 8.1 mph 16.1 mph N/A   Mostly Cloudy
4:53 PM 91.9 °F 107.3 °F 78.1 °F 64% 29.98 in 10.0 mi ESE 8.1 mph 16.1 mph N/A   Mostly Cloudy
5:07 PM 91.4 °F 107.2 °F 78.8 °F 66% 29.98 in 10.0 mi East 8.1 mph 19.6 mph N/A   Scattered Clouds
5:53 PM 90.0 °F 102.5 °F 77.0 °F 65% 29.98 in 10.0 mi ESE 9.2 mph - N/A   Partly Cloudy
6:53 PM 88.0 °F 100.2 °F 77.0 °F 70% 29.99 in 9.0 mi ESE 5.8 mph - N/A   Partly Cloudy
7:41 PM 87.8 °F 97.6 °F 75.2 °F 66% 30.00 in 9.0 mi SE 8.1 mph - N/A   Mostly Cloudy
7:49 PM 87.8 °F 97.6 °F 75.2 °F 66% 30.00 in 9.0 mi ESE 6.9 mph - N/A   Partly Cloudy
7:53 PM 87.1 °F 97.3 °F 75.9 °F 69% 30.01 in 9.0 mi ESE 8.1 mph - N/A   Partly Cloudy
8:53 PM 86.0 °F 96.9 °F 77.0 °F 74% 30.02 in 10.0 mi Variable 5.8 mph - N/A   Clear
9:53 PM 86.0 °F 96.9 °F 77.0 °F 74% 30.04 in 10.0 mi ESE 8.1 mph - N/A   Partly Cloudy
10:53 PM 86.0 °F 96.9 °F 77.0 °F 74% 30.04 in 10.0 mi East 6.9 mph - N/A   Clear
11:53 PM 86.0 °F 96.0 °F 75.9 °F 72% 30.03 in 10.0 mi ESE 6.9 mph - N/A   Clear